TimeMDT,TemperatureF,Dew PointF,Humidity,Sea Level PressureIn,VisibilityMPH,Wind Direction,Wind SpeedMPH,Gust SpeedMPH,PrecipitationIn,Events,Conditions,WindDirDegrees,DateUTC
12:15 AM,57.2,35.6,44,30.01,10.0,Calm,Calm,-,N/A,,Clear,0,2013-09-30 06:15:00
12:35 AM,53.6,37.4,54,30.01,10.0,Calm,Calm,-,N/A,,Clear,0,2013-09-30 06:35:00
12:55 AM,57.2,32.0,38,30.00,10.0,West,6.9,-,N/A,,Clear,270,2013-09-30 06:55:00
1:15 AM,55.4,35.6,47,30.00,10.0,Calm,Calm,-,N/A,,Clear,0,2013-09-30 07:15:00
1:35 AM,55.4,35.6,47,30.00,10.0,East,5.8,-,N/A,,Clear,80,2013-09-30 07:35:00
1:55 AM,53.6,35.6,51,30.00,10.0,East,3.5,-,N/A,,Clear,100,2013-09-30 07:55:00
2:15 AM,53.6,35.6,51,30.00,10.0,Calm,Calm,-,N/A,,Clear,0,2013-09-30 08:15:00
2:35 AM,53.6,35.6,51,30.00,10.0,East,4.6,-,N/A,,Clear,90,2013-09-30 08:35:00
2:55 AM,53.6,37.4,54,29.99,10.0,Calm,Calm,-,N/A,,Clear,0,2013-09-30 08:55:00
3:15 AM,53.6,37.4,54,29.98,10.0,Calm,Calm,-,N/A,,Clear,0,2013-09-30 09:15:00
3:35 AM,53.6,37.4,54,29.98,10.0,ESE,3.5,-,N/A,,Clear,120,2013-09-30 09:35:00
3:55 AM,53.6,37.4,54,29.98,10.0,ESE,3.5,-,N/A,,Clear,120,2013-09-30 09:55:00
4:15 AM,53.6,35.6,51,29.97,10.0,Calm,Calm,-,N/A,,Clear,0,2013-09-30 10:15:00
4:35 AM,55.4,35.6,47,29.97,10.0,East,3.5,-,N/A,,Clear,90,2013-09-30 10:35:00
4:55 AM,53.6,35.6,51,29.97,10.0,Calm,Calm,-,N/A,,Clear,0,2013-09-30 10:55:00
5:15 AM,51.8,35.6,54,29.97,10.0,Calm,Calm,-,N/A,,Clear,0,2013-09-30 11:15:00
5:35 AM,53.6,33.8,47,29.97,10.0,Calm,Calm,-,N/A,,Clear,0,2013-09-30 11:35:00
5:55 AM,51.8,35.6,54,29.97,10.0,Calm,Calm,-,N/A,,Clear,0,2013-09-30 11:55:00
6:15 AM,50.0,35.6,58,29.97,10.0,Calm,Calm,-,N/A,,Clear,0,2013-09-30 12:15:00
6:35 AM,48.2,35.6,62,29.97,10.0,SW,8.1,-,N/A,,Clear,220,2013-09-30 12:35:00
6:55 AM,50.0,37.4,62,29.97,10.0,SSW,8.1,-,N/A,,Clear,210,2013-09-30 12:55:00
7:15 AM,50.0,37.4,62,29.97,10.0,SW,5.8,-,N/A,,Clear,220,2013-09-30 13:15:00
7:35 AM,55.4,37.4,51,29.98,10.0,SSW,4.6,-,N/A,,Clear,210,2013-09-30 13:35:00
7:55 AM,57.2,39.2,51,29.98,10.0,SSW,4.6,-,N/A,,Clear,200,2013-09-30 13:55:00
8:15 AM,60.8,37.4,42,29.98,10.0,South,4.6,-,N/A,,Clear,190,2013-09-30 14:15:00
8:35 AM,64.4,39.2,40,29.98,10.0,SW,3.5,-,N/A,,Clear,220,2013-09-30 14:35:00
8:55 AM,66.2,39.2,37,29.98,10.0,SSW,4.6,-,N/A,,Clear,210,2013-09-30 14:55:00
9:15 AM,69.8,39.2,33,29.98,10.0,Calm,Calm,-,N/A,,Clear,0,2013-09-30 15:15:00
10:35 AM,80.6,32.0,17,29.97,10.0,WSW,5.8,-,N/A,,Clear,240,2013-09-30 16:35:00
10:55 AM,82.4,32.0,16,29.96,10.0,West,6.9,-,N/A,,Clear,260,2013-09-30 16:55:00
11:15 AM,82.4,32.0,16,29.95,10.0,West,5.8,-,N/A,,Clear,260,2013-09-30 17:15:00
11:35 AM,82.4,32.0,16,29.95,10.0,West,6.9,-,N/A,,Clear,270,2013-09-30 17:35:00
11:55 AM,84.2,28.4,13,29.94,10.0,West,3.5,-,N/A,,Clear,280,2013-09-30 17:55:00
12:15 PM,84.2,30.2,14,29.93,10.0,West,5.8,-,N/A,,Clear,270,2013-09-30 18:15:00
12:35 PM,84.2,30.2,14,29.93,10.0,WNW,6.9,-,N/A,,Clear,290,2013-09-30 18:35:00
12:55 PM,84.2,32.0,15,29.92,10.0,WSW,6.9,-,N/A,,Clear,250,2013-09-30 18:55:00
1:15 PM,86.0,30.2,13,29.91,10.0,Calm,Calm,-,N/A,,Clear,0,2013-09-30 19:15:00
1:35 PM,86.0,30.2,13,29.90,10.0,West,5.8,-,N/A,,Clear,260,2013-09-30 19:35:00
1:55 PM,86.0,32.0,14,29.88,10.0,SW,10.4,-,N/A,,Clear,230,2013-09-30 19:55:00
2:15 PM,86.0,32.0,14,29.88,10.0,SSW,9.2,-,N/A,,Clear,200,2013-09-30 20:15:00
2:35 PM,86.0,32.0,14,29.87,10.0,SW,10.4,-,N/A,,Clear,230,2013-09-30 20:35:00
2:55 PM,87.8,32.0,14,29.87,10.0,SSW,6.9,-,N/A,,Clear,200,2013-09-30 20:55:00
3:15 PM,86.0,32.0,14,29.86,10.0,SSE,4.6,-,N/A,,Clear,150,2013-09-30 21:15:00
3:35 PM,87.8,32.0,14,29.86,10.0,SSE,9.2,-,N/A,,Clear,160,2013-09-30 21:35:00
3:55 PM,87.8,32.0,14,29.85,10.0,SSE,4.6,-,N/A,,Clear,160,2013-09-30 21:55:00
4:15 PM,87.8,32.0,14,29.85,10.0,SSE,6.9,-,N/A,,Clear,150,2013-09-30 22:15:00
4:35 PM,86.0,32.0,14,29.85,10.0,South,4.6,-,N/A,,Clear,170,2013-09-30 22:35:00
4:55 PM,87.8,32.0,14,29.85,10.0,SSE,5.8,-,N/A,,Clear,150,2013-09-30 22:55:00
5:15 PM,86.0,32.0,14,29.85,10.0,South,6.9,-,N/A,,Clear,190,2013-09-30 23:15:00
5:35 PM,86.0,35.6,17,29.85,10.0,SE,5.8,-,N/A,,Clear,140,2013-09-30 23:35:00
5:55 PM,86.0,35.6,17,29.85,10.0,SE,4.6,-,N/A,,Clear,140,2013-09-30 23:55:00
6:15 PM,82.4,41.0,23,29.85,10.0,SSE,6.9,-,N/A,,Clear,150,2013-10-01 00:15:00
6:35 PM,82.4,37.4,20,29.85,10.0,SE,5.8,-,N/A,,Clear,140,2013-10-01 00:35:00
6:55 PM,78.8,39.2,24,29.85,10.0,South,6.9,-,N/A,,Clear,190,2013-10-01 00:55:00
7:15 PM,73.4,41.0,31,29.85,10.0,SW,9.2,-,N/A,,Clear,220,2013-10-01 01:15:00
7:35 PM,69.8,39.2,33,29.85,10.0,WSW,10.4,-,N/A,,Clear,240,2013-10-01 01:35:00
7:55 PM,71.6,39.2,31,29.86,10.0,WSW,10.4,-,N/A,,Clear,240,2013-10-01 01:55:00
8:15 PM,71.6,37.4,29,29.86,10.0,WSW,10.4,-,N/A,,Clear,240,2013-10-01 02:15:00
8:35 PM,69.8,37.4,31,29.86,10.0,West,8.1,-,N/A,,Clear,260,2013-10-01 02:35:00
8:55 PM,68.0,39.2,35,29.87,10.0,WSW,10.4,-,N/A,,Clear,250,2013-10-01 02:55:00
9:15 PM,66.2,39.2,37,29.87,10.0,West,13.8,-,N/A,,Clear,270,2013-10-01 03:15:00
9:35 PM,66.2,37.4,35,29.88,10.0,West,12.7,-,N/A,,Clear,270,2013-10-01 03:35:00
9:55 PM,66.2,35.6,32,29.88,10.0,West,13.8,-,N/A,,Clear,270,2013-10-01 03:55:00
10:15 PM,66.2,35.6,32,29.89,10.0,West,12.7,-,N/A,,Clear,260,2013-10-01 04:15:00
10:35 PM,66.2,35.6,32,29.89,10.0,West,13.8,-,N/A,,Clear,270,2013-10-01 04:35:00
10:55 PM,64.4,35.6,34,29.89,10.0,West,13.8,-,N/A,,Clear,270,2013-10-01 04:55:00
11:15 PM,64.4,35.6,34,29.88,10.0,West,12.7,-,N/A,,Clear,270,2013-10-01 05:15:00
11:35 PM,64.4,33.8,32,29.88,10.0,West,13.8,-,N/A,,Clear,270,2013-10-01 05:35:00
11:55 PM,64.4,32.0,30,29.88,10.0,West,13.8,-,N/A,,Clear,270,2013-10-01 05:55:00